Home > Weather > Bad Oldesloe > Past weeks

Flag for Germany Past Weather in Bad Oldesloe, Schleswig-Holstein, Germany — Yesterday and Last 2 Weeks

Now
61 °F

Sunny.


Feels Like: 61 °F
Forecast: 61 / 72 °F
Wind: 10 mph from Northeast

Location: Hamburg-Fuhlsbuettel

Current Time: May 30, 2016 at 6:57:37 AM

Latest Report: May 30, 2016 at 6:20 AM


Visibility: 10 mi

Pressure: 29.71 "Hg

Humidity: 88%

Dew Point: 57 °F

Location of Bad OldesloeLocation

Past Weather in Bad Oldesloe — Graph

°F

Bad Oldesloe Temperature Yesterday

Maximum temperature yesterday: 70 °F (at 4:50 PM)
Minimum temperature yesterday: 54 °F (at 5:20 AM)
Average temperature yesterday: 61 °F

High & Low Weather Summary for the Past Weeks

 TemperatureHumidityPressure
High82 °F (May 22, 2:50 PM)100% (May 15, 5:20 AM)30.07 "Hg (May 15, 5:20 AM)
Low41 °F (May 15, 5:20 AM)27% (May 19, 3:20 PM)29.68 "Hg (May 22, 2:50 PM)
Average57 °F80%29.91 "Hg
* Reported May 15 5:20 AM — May 30 5:20 AM, Bad Oldesloe, Weather by CustomWeather, © 2016

Note: Actual official high and low records may vary slightly from our data, if they occured in-between our weather recording intervals... More about our weather records

Advertising

Bad Oldesloe Weather History for the Previous 24 Hours

Scroll right to see more
 ConditionsComfort  
Time TempWeatherWind HumidityBarometerVisibility
5:20 AM
Mon, May 30
59 °FClear.8 mph94%29.71 "Hg5 mi
4:50 AM59 °FClear.8 mph94%29.71 "Hg5 mi
4:20 AM59 °FPassing clouds.5 mph94%29.71 "HgN/A
3:50 AM59 °FPassing clouds.8 mph94%29.71 "HgN/A
3:20 AM59 °FPassing clouds.7 mph94%29.71 "HgN/A
2:50 AM59 °FClear.8 mph94%29.74 "Hg10 mi
2:20 AM59 °FPassing clouds.7 mph94%29.74 "HgN/A
1:50 AM59 °FPassing clouds.6 mph94%29.74 "HgN/A
1:20 AM61 °FPassing clouds.10 mph94%29.74 "HgN/A
12:50 AM61 °FPassing clouds.9 mph94%29.74 "HgN/A
12:20 AM61 °FPassing clouds.5 mph94%29.74 "HgN/A
11:50 PM
Sun, May 29
63 °FPassing clouds.6 mph88%29.74 "HgN/A
11:20 PM63 °FPassing clouds.6 mph88%29.74 "HgN/A
10:50 PM63 °FPassing clouds.7 mph88%29.77 "HgN/A
10:20 PM64 °FPartly sunny.7 mph83%29.77 "HgN/A
9:50 PM64 °FPartly sunny.7 mph83%29.77 "HgN/A
9:20 PM64 °FPartly sunny.9 mph83%29.74 "HgN/A
8:50 PM66 °FBroken clouds.13 mph83%29.74 "HgN/A
8:20 PM68 °FScattered clouds.12 mph78%29.74 "HgN/A
7:50 PM68 °FScattered clouds.9 mph78%29.74 "HgN/A
7:20 PM68 °FScattered clouds.9 mph78%29.74 "HgN/A
6:50 PM68 °FSunny.10 mph73%29.77 "Hg10 mi
6:20 PM70 °FPassing clouds.13 mph69%29.77 "HgN/A
5:50 PM70 °FScattered clouds.10 mph73%29.77 "HgN/A
5:20 PM70 °FScattered clouds.10 mph73%29.77 "HgN/A
4:50 PM70 °FScattered clouds.13 mph73%29.77 "HgN/A
4:20 PM68 °FScattered clouds.13 mph78%29.77 "HgN/A
3:50 PM66 °FScattered clouds.10 mph83%29.80 "HgN/A
3:20 PM64 °FPartly sunny.12 mph88%29.80 "HgN/A
2:50 PM63 °FLight rain. Broken clouds.10 mph94%29.80 "HgN/A
2:20 PM63 °FLight rain. Partly sunny.10 mph94%29.80 "Hg5 mi
1:50 PM63 °FLight rain. Broken clouds.10 mph88%29.80 "Hg5 mi
1:20 PM61 °FLight rain. Broken clouds.8 mph94%29.83 "Hg5 mi
12:50 PM61 °FLight rain. Broken clouds.8 mph88%29.83 "Hg5 mi
12:20 PM61 °FLight rain. Broken clouds.7 mph88%29.83 "Hg6 mi
11:50 AM61 °FLight rain. Broken clouds.8 mph88%29.83 "Hg5 mi
11:20 AM59 °FLight rain. Partly sunny.9 mph88%29.86 "Hg5 mi
10:50 AM59 °FLight rain. Partly sunny.9 mph88%29.86 "Hg4 mi
10:20 AM57 °FLight rain. Broken clouds.9 mph94%29.86 "Hg4 mi
9:50 AM57 °FLight rain. Broken clouds.10 mph94%29.86 "Hg4 mi
9:20 AM57 °FFog.9 mph94%29.86 "Hg3 mi
8:50 AM57 °FFog.8 mph94%29.86 "Hg3 mi
8:20 AM57 °FFog.8 mph94%29.86 "Hg3 mi
7:50 AM57 °FFog.8 mph94%29.86 "Hg3 mi
7:20 AM55 °FFog.8 mph100%29.86 "Hg3 mi
6:50 AM55 °FFog.8 mph94%29.89 "Hg3 mi
6:20 AM55 °FFog.7 mph94%29.89 "Hg3 mi
Weather by CustomWeather, © 2016

See weather overviewHow to use our weather pages